Time,TemperatureF,DewpointF,PressureIn,WindDirection,WindDirectionDegrees,WindSpeedMPH,WindSpeedGustMPH,Humidity,HourlyPrecipIn,Conditions,Clouds,dailyrainin,SoftwareType,DateUTC
2013-06-27 00:03:00,64.7,41.0,30.05,SW,222,4.0,7.0,42,0.00,,,0.00,weatherlink.com 1.10,2013-06-27 06:03:00,
2013-06-27 00:18:00,65.0,40.0,30.05,SW,233,4.0,4.0,40,0.00,,,0.00,weatherlink.com 1.10,2013-06-27 06:18:00,
2013-06-27 00:33:00,67.8,39.0,30.05,SW,232,0.0,9.0,35,0.00,,,0.00,weatherlink.com 1.10,2013-06-27 06:33:00,
2013-06-27 00:48:00,68.4,38.0,30.05,WSW,245,6.0,11.0,33,0.00,,,0.00,weatherlink.com 1.10,2013-06-27 06:48:00,
2013-06-27 01:03:00,66.1,39.0,30.05,NNW,328,0.0,5.0,37,0.00,,,0.00,weatherlink.com 1.10,2013-06-27 07:03:00,
2013-06-27 01:18:00,64.0,39.0,30.05,NNW,328,2.0,3.0,40,0.00,,,0.00,weatherlink.com 1.10,2013-06-27 07:18:00,
2013-06-27 01:33:00,62.3,39.0,30.05,WSW,256,2.0,6.0,43,0.00,,,0.00,weatherlink.com 1.10,2013-06-27 07:33:00,
2013-06-27 01:48:00,61.0,40.0,30.05,SW,233,4.0,5.0,47,0.00,,,0.00,weatherlink.com 1.10,2013-06-27 07:48:00,
2013-06-27 02:03:00,59.0,40.0,30.05,SSW,205,1.0,6.0,50,0.00,,,0.00,weatherlink.com 1.10,2013-06-27 08:03:00,
2013-06-27 02:18:00,59.0,40.0,30.05,SSE,160,0.0,4.0,50,0.00,,,0.00,weatherlink.com 1.10,2013-06-27 08:18:00,
2013-06-27 02:33:00,57.5,40.0,30.06,SSW,193,4.0,5.0,53,0.00,,,0.00,weatherlink.com 1.10,2013-06-27 08:33:00,
2013-06-27 02:48:00,56.2,41.0,30.06,SSW,203,4.0,5.0,58,0.00,,,0.00,weatherlink.com 1.10,2013-06-27 08:48:00,
2013-06-27 03:03:00,55.6,40.0,30.06,WSW,258,1.0,3.0,57,0.00,,,0.00,weatherlink.com 1.10,2013-06-27 09:03:00,
2013-06-27 03:18:00,55.1,39.0,30.07,WSW,258,1.0,4.0,56,0.00,,,0.00,weatherlink.com 1.10,2013-06-27 09:18:00,
2013-06-27 03:33:00,56.0,41.0,30.07,WSW,241,8.0,8.0,57,0.00,,,0.00,weatherlink.com 1.10,2013-06-27 09:33:00,
2013-06-27 03:48:00,55.0,42.0,30.07,SW,220,1.0,6.0,61,0.00,,,0.00,weatherlink.com 1.10,2013-06-27 09:48:00,
2013-06-27 04:03:00,55.0,39.0,30.08,WSW,257,4.0,5.0,55,0.00,,,0.00,weatherlink.com 1.10,2013-06-27 10:03:00,
2013-06-27 04:18:00,54.1,39.0,30.08,WSW,257,0.0,4.0,58,0.00,,,0.00,weatherlink.com 1.10,2013-06-27 10:18:00,
2013-06-27 04:33:00,53.8,39.0,30.08,WSW,257,2.0,4.0,58,0.00,,,0.00,weatherlink.com 1.10,2013-06-27 10:33:00,
2013-06-27 04:48:00,55.1,40.0,30.08,WSW,257,2.0,3.0,58,0.00,,,0.00,weatherlink.com 1.10,2013-06-27 10:48:00,
2013-06-27 05:03:00,55.3,41.0,30.09,WSW,257,1.0,5.0,59,0.00,,,0.00,weatherlink.com 1.10,2013-06-27 11:03:00,
2013-06-27 05:19:00,53.5,41.0,30.09,WSW,257,2.0,4.0,64,0.00,,,0.00,weatherlink.com 1.10,2013-06-27 11:19:00,
2013-06-27 05:34:00,55.0,40.0,30.09,West,260,2.0,5.0,58,0.00,,,0.00,weatherlink.com 1.10,2013-06-27 11:34:00,
2013-06-27 05:49:00,54.8,41.0,30.10,West,260,0.0,5.0,59,0.00,,,0.00,weatherlink.com 1.10,2013-06-27 11:49:00,
2013-06-27 06:04:00,53.8,40.0,30.10,West,260,1.0,3.0,59,0.00,,,0.00,weatherlink.com 1.10,2013-06-27 12:04:00,
2013-06-27 06:19:00,53.6,41.0,30.11,West,262,3.0,6.0,63,0.00,,,0.00,weatherlink.com 1.10,2013-06-27 12:19:00,
2013-06-27 06:34:00,56.6,42.0,30.11,West,262,2.0,3.0,58,0.00,,,0.00,weatherlink.com 1.10,2013-06-27 12:34:00,
2013-06-27 06:49:00,58.1,42.0,30.11,West,262,0.0,4.0,56,0.00,,,0.00,weatherlink.com 1.10,2013-06-27 12:49:00,
2013-06-27 07:04:00,61.0,45.0,30.12,West,262,1.0,2.0,55,0.00,,,0.00,weatherlink.com 1.10,2013-06-27 13:04:00,
2013-06-27 07:19:00,65.0,45.0,30.12,West,262,2.0,2.0,48,0.00,,,0.00,weatherlink.com 1.10,2013-06-27 13:19:00,
2013-06-27 07:34:00,68.1,48.0,30.12,SSW,204,1.0,2.0,49,0.00,,,0.00,weatherlink.com 1.10,2013-06-27 13:34:00,
2013-06-27 07:49:00,69.4,48.0,30.12,ESE,118,2.0,4.0,46,0.00,,,0.00,weatherlink.com 1.10,2013-06-27 13:49:00,
2013-06-27 08:04:00,71.8,46.0,30.12,East,100,2.0,5.0,40,0.00,,,0.00,weatherlink.com 1.10,2013-06-27 14:04:00,
2013-06-27 08:19:00,72.8,44.0,30.12,East,100,5.0,5.0,36,0.00,,,0.00,weatherlink.com 1.10,2013-06-27 14:19:00,
2013-06-27 08:34:00,72.8,47.0,30.12,ENE,65,4.0,5.0,40,0.00,,,0.00,weatherlink.com 1.10,2013-06-27 14:34:00,
2013-06-27 08:49:00,72.8,48.0,30.12,ENE,70,4.0,8.0,42,0.00,,,0.00,weatherlink.com 1.10,2013-06-27 14:49:00,
2013-06-27 09:04:00,74.0,47.0,30.12,ENE,70,3.0,7.0,39,0.00,,,0.00,weatherlink.com 1.10,2013-06-27 15:04:00,
2013-06-27 09:19:00,75.4,47.0,30.12,East,86,3.0,10.0,36,0.00,,,0.00,weatherlink.com 1.10,2013-06-27 15:19:00,
2013-06-27 09:34:00,75.8,46.0,30.12,East,82,6.0,11.0,35,0.00,,,0.00,weatherlink.com 1.10,2013-06-27 15:34:00,
2013-06-27 09:49:00,76.3,45.0,30.12,East,91,11.0,13.0,33,0.00,,,0.00,weatherlink.com 1.10,2013-06-27 15:49:00,
2013-06-27 10:04:00,77.0,46.0,30.11,East,87,7.0,11.0,33,0.00,,,0.00,weatherlink.com 1.10,2013-06-27 16:04:00,
2013-06-27 10:19:00,77.6,45.0,30.11,East,82,6.0,14.0,31,0.00,,,0.00,weatherlink.com 1.10,2013-06-27 16:19:00,
2013-06-27 10:34:00,78.1,45.0,30.11,East,89,7.0,11.0,31,0.00,,,0.00,weatherlink.com 1.10,2013-06-27 16:34:00,
2013-06-27 10:49:00,78.8,42.0,30.10,East,93,7.0,13.0,27,0.00,,,0.00,weatherlink.com 1.10,2013-06-27 16:49:00,
2013-06-27 11:04:00,79.9,44.0,30.10,East,81,6.0,11.0,28,0.00,,,0.00,weatherlink.com 1.10,2013-06-27 17:04:00,
2013-06-27 11:19:00,80.1,43.0,30.10,East,89,7.0,10.0,27,0.00,,,0.00,weatherlink.com 1.10,2013-06-27 17:19:00,
2013-06-27 11:34:00,81.1,43.0,30.10,ENE,68,3.0,10.0,26,0.00,,,0.00,weatherlink.com 1.10,2013-06-27 17:34:00,
2013-06-27 11:49:00,81.1,39.0,30.09,East,83,6.0,11.0,22,0.00,,,0.00,weatherlink.com 1.10,2013-06-27 17:49:00,
2013-06-27 12:04:00,82.8,42.0,30.09,East,90,7.0,10.0,24,0.00,,,0.00,weatherlink.com 1.10,2013-06-27 18:04:00,
2013-06-27 12:19:00,83.8,37.0,30.08,ESE,106,8.0,11.0,19,0.00,,,0.00,weatherlink.com 1.10,2013-06-27 18:19:00,
2013-06-27 12:34:00,84.9,40.0,30.08,NE,49,4.0,11.0,20,0.00,,,0.00,weatherlink.com 1.10,2013-06-27 18:34:00,
2013-06-27 12:49:00,85.9,40.0,30.08,WNW,287,2.0,8.0,20,0.00,,,0.00,weatherlink.com 1.10,2013-06-27 18:49:00,
2013-06-27 13:04:00,87.4,37.0,30.07,NNE,27,1.0,8.0,17,0.00,,,0.00,weatherlink.com 1.10,2013-06-27 19:04:00,
2013-06-27 13:19:00,86.1,36.0,30.07,North,359,4.0,12.0,17,0.00,,,0.00,weatherlink.com 1.10,2013-06-27 19:19:00,
2013-06-27 13:34:00,89.0,37.0,30.06,SSW,212,0.0,7.0,16,0.00,,,0.00,weatherlink.com 1.10,2013-06-27 19:34:00,
2013-06-27 13:50:00,91.0,36.0,30.05,ESE,121,3.0,9.0,14,0.00,,,0.00,weatherlink.com 1.10,2013-06-27 19:50:00,
2013-06-27 14:04:00,90.1,33.0,30.05,WSW,244,16.0,17.0,13,0.00,,,0.00,weatherlink.com 1.10,2013-06-27 20:04:00,
2013-06-27 14:20:00,89.9,36.0,30.05,WSW,253,15.0,22.0,15,0.00,,,0.00,weatherlink.com 1.10,2013-06-27 20:20:00,
2013-06-27 14:35:00,89.9,35.0,30.05,NNW,328,7.0,13.0,14,0.00,,,0.00,weatherlink.com 1.10,2013-06-27 20:35:00,
2013-06-27 15:05:00,91.0,34.0,30.05,WSW,255,8.0,10.0,13,0.00,,,0.00,weatherlink.com 1.10,2013-06-27 21:05:00,
2013-06-27 15:20:00,89.9,33.0,30.04,West,274,12.0,12.0,13,0.00,,,0.00,weatherlink.com 1.10,2013-06-27 21:20:00,
2013-06-27 15:35:00,89.5,34.0,30.04,WSW,253,10.0,16.0,14,0.00,,,0.00,weatherlink.com 1.10,2013-06-27 21:35:00,
2013-06-27 15:50:00,90.7,35.0,30.04,SW,229,10.0,17.0,14,0.00,,,0.00,weatherlink.com 1.10,2013-06-27 21:50:00,
2013-06-27 16:05:00,90.5,37.0,30.04,West,264,6.0,16.0,15,0.00,,,0.00,weatherlink.com 1.10,2013-06-27 22:05:00,
2013-06-27 16:20:00,92.1,36.0,30.04,WNW,299,3.0,16.0,14,0.00,,,0.00,weatherlink.com 1.10,2013-06-27 22:20:00,
2013-06-27 16:35:00,90.5,37.0,30.03,West,266,7.0,17.0,15,0.00,,,0.00,weatherlink.com 1.10,2013-06-27 22:35:00,
2013-06-27 16:50:00,91.4,34.0,30.03,WNW,285,9.0,13.0,13,0.00,,,0.00,weatherlink.com 1.10,2013-06-27 22:50:00,
2013-06-27 17:05:00,91.6,32.0,30.03,NNW,348,2.0,12.0,12,0.00,,,0.00,weatherlink.com 1.10,2013-06-27 23:05:00,
2013-06-27 17:20:00,92.5,33.0,30.02,NW,324,4.0,9.0,12,0.00,,,0.00,weatherlink.com 1.10,2013-06-27 23:20:00,
2013-06-27 17:35:00,91.4,36.0,30.02,West,268,11.0,13.0,14,0.00,,,0.00,weatherlink.com 1.10,2013-06-27 23:35:00,
2013-06-27 17:50:00,91.4,34.0,30.02,WNW,293,6.0,13.0,13,0.00,,,0.00,weatherlink.com 1.10,2013-06-27 23:50:00,
2013-06-27 18:36:00,90.1,31.0,30.02,West,280,3.0,14.0,12,0.00,,,0.00,weatherlink.com 1.10,2013-06-28 00:36:00,
2013-06-27 18:50:00,91.4,30.0,30.02,NW,320,6.0,11.0,11,0.00,,,0.00,weatherlink.com 1.10,2013-06-28 00:50:00,
2013-06-27 19:05:00,90.7,33.0,30.02,NNW,345,9.0,12.0,13,0.00,,,0.00,weatherlink.com 1.10,2013-06-28 01:05:00,
2013-06-27 19:20:00,90.1,33.0,30.03,East,91,3.0,13.0,13,0.00,,,0.00,weatherlink.com 1.10,2013-06-28 01:20:00,
2013-06-27 19:50:00,88.6,35.0,30.03,West,262,1.0,9.0,15,0.00,,,0.00,weatherlink.com 1.10,2013-06-28 01:50:00,
2013-06-27 20:05:00,87.2,36.0,30.03,WNW,284,6.0,8.0,16,0.00,,,0.00,weatherlink.com 1.10,2013-06-28 02:05:00,
2013-06-27 20:35:00,81.2,38.0,30.04,West,265,5.0,5.0,21,0.00,,,0.00,weatherlink.com 1.10,2013-06-28 02:35:00,
2013-06-27 21:05:00,76.1,36.0,30.05,West,267,4.0,8.0,23,0.00,,,0.00,weatherlink.com 1.10,2013-06-28 03:05:00,
2013-06-27 21:20:00,78.1,35.0,30.05,WSW,252,9.0,10.0,21,0.00,,,0.00,weatherlink.com 1.10,2013-06-28 03:20:00,
2013-06-27 21:35:00,79.4,36.0,30.07,WSW,248,7.0,11.0,21,0.00,,,0.00,weatherlink.com 1.10,2013-06-28 03:35:00,
2013-06-27 22:05:00,78.3,36.0,30.08,West,260,4.0,9.0,22,0.00,,,0.00,weatherlink.com 1.10,2013-06-28 04:05:00,
2013-06-27 22:20:00,77.4,37.0,30.08,SW,231,0.0,9.0,23,0.00,,,0.00,weatherlink.com 1.10,2013-06-28 04:20:00,
2013-06-27 22:35:00,73.2,37.0,30.09,NE,53,1.0,7.0,27,0.00,,,0.00,weatherlink.com 1.10,2013-06-28 04:35:00,
2013-06-27 22:50:00,69.9,39.0,30.10,SSW,207,5.0,5.0,32,0.00,,,0.00,weatherlink.com 1.10,2013-06-28 04:50:00,
2013-06-27 23:05:00,70.9,36.0,30.10,SW,222,3.0,7.0,28,0.00,,,0.00,weatherlink.com 1.10,2013-06-28 05:05:00,
2013-06-27 23:20:00,70.9,35.0,30.10,SW,222,0.0,3.0,27,0.00,,,0.00,weatherlink.com 1.10,2013-06-28 05:20:00,
2013-06-27 23:35:00,68.4,38.0,30.11,SW,222,0.0,4.0,33,0.00,,,0.00,weatherlink.com 1.10,2013-06-28 05:35:00,
2013-06-27 23:50:00,67.3,39.0,30.11,SSW,213,2.0,9.0,36,0.00,,,0.00,weatherlink.com 1.10,2013-06-28 05:50:00,